GIA009 WIMM-WIDD

Flight info

Callsign GIA009
Flight time N/A
Altitude 37000
Route AKPAG L762 MIBEL
Aircraft B738/M-SDE2E3FGHIRWXY/LB1

Departure

Time 2026-04-24 11:16
Airport Kualanamu International Airport (WIMM)

Arrival

Time N/A
Airport Hang Nadim International Airport (WIDD)
Time Latitude Longitude Altitude Speed Heading
2026-04-24 10:34 3.63537 98.88198 39 ft 0 kts 224°
2026-04-24 10:35 3.63555 98.88164 37 ft 0 kts 225°
2026-04-24 10:55 3.63558 98.88166 39 ft 2 kts 226°
2026-04-24 10:56 3.63563 98.88172 38 ft 3 kts 223°
2026-04-24 10:56 3.63579 98.88185 37 ft 3 kts 219°
2026-04-24 10:56 3.63595 98.88198 38 ft 3 kts 213°
2026-04-24 10:56 3.63612 98.88208 38 ft 3 kts 205°
2026-04-24 10:57 3.63628 98.88214 38 ft 1 kts 195°
2026-04-24 10:57 3.63629 98.88215 39 ft 1 kts 194°
2026-04-24 11:00 3.63628 98.88215 39 ft 0 kts 186°
2026-04-24 11:00 3.63615 98.88229 39 ft 8 kts 127°
2026-04-24 11:00 3.63625 98.88295 38 ft 11 kts 48°
2026-04-24 11:00 3.63687 98.88358 39 ft 14 kts 44°
2026-04-24 11:01 3.63757 98.88427 39 ft 10 kts 46°
2026-04-24 11:01 3.63828 98.88443 38 ft 13 kts 334°
2026-04-24 11:01 3.63920 98.88361 39 ft 22 kts 316°
2026-04-24 11:01 3.64042 98.88238 39 ft 27 kts 315°
2026-04-24 11:02 3.64100 98.88181 39 ft 4 kts 327°
2026-04-24 11:02 3.64136 98.88183 39 ft 7 kts 22°
2026-04-24 11:02 3.64196 98.88199 39 ft 9 kts 347°
2026-04-24 11:02 3.64270 98.88137 39 ft 18 kts 316°
2026-04-24 11:03 3.64314 98.88094 39 ft 6 kts 315°
2026-04-24 11:03 3.64356 98.88035 39 ft 14 kts 277°
2026-04-24 11:03 3.64293 98.87946 39 ft 18 kts 226°
2026-04-24 11:03 3.64183 98.87833 39 ft 26 kts 225°
2026-04-24 11:04 3.64053 98.87704 39 ft 26 kts 225°
2026-04-24 11:04 3.63929 98.87581 39 ft 24 kts 224°
2026-04-24 11:04 3.63813 98.87466 39 ft 23 kts 224°
2026-04-24 11:04 3.63701 98.87356 39 ft 22 kts 226°
2026-04-24 11:05 3.63614 98.87256 39 ft 15 kts 253°
2026-04-24 11:05 3.63623 98.87157 38 ft 15 kts 242°
2026-04-24 11:05 3.63556 98.87084 38 ft 14 kts 224°
2026-04-24 11:05 3.63489 98.87018 38 ft 13 kts 224°
2026-04-24 11:06 3.63423 98.86954 38 ft 13 kts 224°
2026-04-24 11:06 3.63360 98.86888 38 ft 15 kts 225°
2026-04-24 11:06 3.63277 98.86806 38 ft 19 kts 225°
2026-04-24 11:06 3.63172 98.86702 38 ft 24 kts 225°
2026-04-24 11:07 3.62940 98.86471 38 ft 20 kts 224°
2026-04-24 11:07 3.62843 98.86374 39 ft 19 kts 225°
2026-04-24 11:07 3.62779 98.86310 39 ft 2 kts 225°
2026-04-24 11:08 3.62763 98.86294 39 ft 7 kts 225°
2026-04-24 11:08 3.62702 98.86233 39 ft 6 kts 224°
2026-04-24 11:08 3.62671 98.86203 39 ft 4 kts 224°
2026-04-24 11:08 3.62642 98.86175 39 ft 1 kts 224°
2026-04-24 11:09 3.62636 98.86169 39 ft 1 kts 224°
2026-04-24 11:09 3.62628 98.86162 39 ft 2 kts 224°
2026-04-24 11:09 3.62598 98.86132 39 ft 13 kts 224°
2026-04-24 11:09 3.62538 98.86070 38 ft 0 kts 226°
2026-04-24 11:10 3.62537 98.86069 39 ft 0 kts 226°
2026-04-24 11:12 3.62532 98.86065 21 ft 4 kts 225°
2026-04-24 11:12 3.62503 98.86015 38 ft 8 kts 258°
2026-04-24 11:12 3.62508 98.85968 36 ft 1 kts 288°
2026-04-24 11:12 3.62511 98.85961 35 ft 0 kts 289°
2026-04-24 11:13 3.62514 98.85952 37 ft 2 kts 289°
2026-04-24 11:13 3.62519 98.85941 36 ft 0 kts 306°
2026-04-24 11:14 3.62531 98.85928 35 ft 8 kts 312°
2026-04-24 11:14 3.62579 98.85880 35 ft 7 kts 338°
2026-04-24 11:15 3.62609 98.85889 35 ft 0 kts 34°
2026-04-24 11:15 3.62609 98.85890 35 ft 0 kts 34°
2026-04-24 11:15 3.62628 98.85906 35 ft 25 kts 42°
2026-04-24 11:15 3.62974 98.86251 37 ft 113 kts 45°
2026-04-24 11:16 3.63702 98.86978 200 ft 172 kts 45°
2026-04-24 11:16 3.64564 98.87926 931 ft 191 kts 52°
2026-04-24 11:16 3.65363 98.89010 1977 ft 193 kts 59°
2026-04-24 11:16 3.66013 98.90179 3060 ft 195 kts 66°
2026-04-24 11:17 3.66434 98.91460 4084 ft 192 kts 82°
2026-04-24 11:17 3.66425 98.92750 5146 ft 187 kts 101°
2026-04-24 11:17 3.66016 98.93986 6051 ft 191 kts 115°
2026-04-24 11:17 3.65345 98.95229 6421 ft 218 kts 121°
2026-04-24 11:18 3.64451 98.96653 6224 ft 267 kts 120°
2026-04-24 11:18 3.63441 98.98394 6133 ft 308 kts 119°
2026-04-24 11:18 3.62407 99.00348 6592 ft 323 kts 115°
2026-04-24 11:18 3.61512 99.02441 7275 ft 329 kts 111°
2026-04-24 11:19 3.60740 99.04596 8139 ft 328 kts 108°
2026-04-24 11:19 3.60056 99.06763 9097 ft 326 kts 106°
2026-04-24 11:19 3.59263 99.08877 9919 ft 324 kts 122°
2026-04-24 11:19 3.58009 99.10751 10724 ft 326 kts 124°
2026-04-24 11:20 3.56678 99.12636 11217 ft 338 kts 125°
2026-04-24 11:20 3.55253 99.14571 11553 ft 353 kts 127°
2026-04-24 11:20 3.53731 99.16555 11990 ft 363 kts 128°
2026-04-24 11:20 3.52154 99.18541 12692 ft 364 kts 128°
2026-04-24 11:21 3.50557 99.20485 13604 ft 359 kts 129°
2026-04-24 11:21 3.48853 99.22226 14542 ft 349 kts 139°
2026-04-24 11:21 3.46915 99.23633 15553 ft 340 kts 148°
2026-04-24 11:21 3.44833 99.24737 16373 ft 339 kts 154°
2026-04-24 11:22 3.42616 99.25610 16883 ft 347 kts 160°
2026-04-24 11:22 3.41394 99.25997 17057 ft 355 kts 162°